SCP
0 0 0 0 0 0 0 0 0 0 0 1 1 1 1 1 1 1 1 3 4 4 3 2 2 3 3 3 3 3 3 2 3 3 3 3 3 4 3 2 2 2 1 1
0 0 0 0 0 0 0 0 0 0 0 0 1 1 1 1 1 1 1 3 4 4 4 3 2 3 4 4 4 4 3 3 3 3 3 3 3 4 3 3 2 2 2 1
0 0 0 0 0 0 0 0 0 1 1 0 1 1 1 1 1 1 1 2 3 4 4 3 3 4 5 5 5 4 4 4 4 4 4 3 3 3 4 4 3 3 2 2
0 0 0 0 0 0 0 0 0 1 1 1 1 1 1 1 1 1 1 1 3 4 5 5 4 5 6 7 7 6 6 7 6 6 5 4 3 3 4 4 3 3 3 3
0 0 0 0 0 0 0 0 0 0 0 1 1 1 1 1 1 1 1 1 2 3 5 6 7 7 7 7 8 9 9 10 9 8 7 5 4 4 4 4 4 4 3 3
0 0 0 0 0 0 0 0 0 0 0 0 0 1 1 2 2 1 1 1 1 3 5 7 8 8 6 5 7 9 11 11 11 9 7 7 6 5 5 4 5 4 4 4
0 0 0 0 0 0 0 0 0 1 1 0 0 1 2 3 2 1 1 1 1 2 5 7 8 7 5 4 5 8 11 12 10 8 7 7 7 7 6 5 5 5 4 4
0 0 0 0 0 0 0 0 0 1 1 0 1 1 2 2 2 1 1 1 1 3 5 7 7 6 5 4 5 7 9 11 11 8 7 8 9 9 8 6 5 5 5 6
0 0 0 0 0 0 0 0 0 1 1 0 1 1 1 1 1 1 1 1 2 3 5 5 5 5 5 6 7 7 8 11 12 11 10 9 9 9 7 5 4 5 6 6
0 0 0 0 0 0 0 0 0 1 1 0 1 1 1 1 1 1 1 2 2 3 4 5 5 6 7 8 8 6 7 11 13 12 10 8 7 6 5 4 4 5 6 5
0 0 0 0 0 0 0 0 0 0 0 0 1 1 1 1 1 1 2 3 3 4 5 6 7 9 10 9 8 6 7 10 11 10 8 6 5 4 4 4 5 6 6 5
0 0 0 0 0 0 0 0 0 0 1 0 1 1 1 2 2 2 3 4 4 6 6 7 9 10 10 9 8 8 7 8 8 8 6 5 5 5 5 5 6 7 6 4
0 0 0 0 0 0 0 0 0 0 0 1 1 1 2 2 3 5 6 7 8 7 7 7 8 9 9 8 7 7 7 7 7 6 6 6 6 6 7 7 7 6 5 4
0 0 0 0 0 0 0 0 0 0 0 1 1 2 3 4 5 7 8 10 11 10 7 6 7 9 9 8 7 7 6 6 6 6 6 7 7 8 8 7 6 5 4 3
0 0 0 0 0 0 0 0 0 0 0 1 2 3 3 4 6 7 8 9 9 9 7 7 8 9 9 9 8 7 6 6 6 7 7 7 7 7 6 6 5 5 4 4
0 0 0 0 0 0 0 0 0 0 0 1 2 3 4 4 5 6 6 6 5 5 6 7 8 9 11 11 9 7 6 7 7 7 7 7 6 6 5 5 5 6 6 6
0 0 0 0 0 0 0 0 0 1 1 2 3 3 4 4 5 5 5 4 4 4 5 6 7 9 12 11 8 7 7 8 8 7 7 7 7 8 9 7 6 7 8 9
1 1 1 0 0 0 0 0 1 2 3 3 3 4 4 5 6 7 6 5 4 5 5 6 6 8 10 10 8 8 8 8 8 7 8 9 9 11 13 9 7 8 9 10
1 1 1 0 0 0 0 1 2 4 4 3 4 5 6 6 6 7 7 7 6 6 7 8 9 10 11 11 10 9 8 7 8 9 11 12 11 12 12 10 8 9 10 11
1 2 1 1 0 1 1 2 3 5 4 4 5 7 7 6 5 6 8 9 9 8 9 11 13 14 14 13 11 9 8 8 9 12 14 14 12 12 12 12 12 12 13 13
1 1 1 1 1 2 2 3 4 4 4 4 5 7 6 5 5 6 9 10 12 12 11 12 14 15 14 12 11 10 10 11 13 15 16 13 12 12 13 15 16 16 17 17
1 1 1 1 2 3 4 3 3 4 5 5 6 6 5 5 6 8 9 10 12 13 12 12 12 12 11 10 9 10 11 13 15 16 15 14 14 13 15 17 19 19 19 18
2 3 3 3 4 5 5 4 3 4 5 6 6 6 5 6 8 10 10 10 10 11 11 10 10 10 9 8 8 9 11 13 15 16 17 20 20 19 20 20 20 19 17 16
4 5 6 6 7 6 6 5 4 4 5 5 6 6 6 8 9 10 10 9 10 11 10 8 8 8 8 8 8 8 9 12 14 17 20 22 23 23 23 22 18 16 15 14
5 6 7 8 8 7 6 5 5 5 5 6 7 6 7 7 9 9 9 10 11 12 12 9 8 8 8 7 7 7 8 10 13 15 17 17 18 19 20 18 14 12 11 11
5 6 7 9 9 8 6 6 5 5 6 7 7 7 6 7 8 8 9 11 11 12 13 11 8 8 8 6 6 6 7 9 11 12 13 12 12 14 16 14 10 7 7 8
Wind_Speed
13 12 10 9 8 7 5 3 3 4 4 4 6 10 13 13 12 13 13 13 13 12 12 12 11 11 11 10 8 7 6 5 3 2 2 2 2 2 2 2 3 2 1 1
14 14 13 10 8 7 7 4 4 2 4 3 3 5 8 12 12 12 12 13 13 13 13 12 11 10 11 10 9 8 6 6 5 3 2 2 2 2 2 2 2 2 2 1
17 12 11 12 11 9 8 6 6 5 4 4 3 2 2 5 7 10 11 12 13 14 15 13 12 11 11 11 10 8 8 7 6 5 3 2 2 1 2 3 2 2 2 2
16 14 12 13 12 9 9 8 7 7 6 4 3 2 3 4 6 9 10 11 13 13 15 15 13 12 11 11 10 8 8 7 6 5 4 4 3 2 2 2 2 3 2 2
15 15 14 14 13 10 9 7 7 9 7 5 4 3 3 5 6 9 11 12 14 13 14 15 14 12 11 12 11 9 8 7 6 5 4 3 2 3 3 3 3 3 2 2
16 13 14 13 11 10 10 9 9 10 8 7 6 4 5 6 8 10 11 11 12 13 13 13 13 13 11 11 11 11 9 7 6 5 4 3 2 2 3 3 3 3 2 2
17 16 15 13 13 11 11 10 6 6 6 6 6 4 5 8 8 8 10 11 11 13 13 12 12 13 11 11 11 11 11 9 7 7 5 4 3 3 3 3 3 2 2 2
16 16 15 13 13 10 12 13 9 7 6 5 4 4 5 9 9 9 9 11 11 12 13 12 11 11 11 12 11 11 11 10 9 7 6 4 4 4 3 4 2 2 2 2
13 12 13 13 12 12 13 13 13 10 8 5 3 3 3 7 7 8 9 10 10 11 13 14 13 12 12 12 11 11 11 10 9 8 6 5 5 4 3 3 3 1 1 3
13 10 11 11 10 13 15 13 9 8 5 6 4 4 3 6 7 8 10 10 10 11 12 13 13 12 12 11 11 10 10 9 8 8 7 7 5 5 4 3 3 2 2 2
15 11 12 12 13 14 14 14 11 8 8 7 4 2 2 5 6 6 8 9 10 11 11 12 12 12 12 12 11 11 11 10 9 8 6 5 6 5 4 3 3 2 2 2
11 11 11 12 11 12 12 13 13 9 7 8 6 3 3 3 6 6 7 7 9 9 10 10 11 12 12 12 12 11 11 11 10 8 7 6 6 6 5 4 4 4 3 3
6 9 10 11 11 13 13 13 15 13 9 9 8 3 2 0 4 8 8 7 8 8 8 8 9 9 9 9 9 10 11 11 11 10 9 7 6 6 5 4 4 4 3 3
6 10 12 12 9 9 12 15 14 13 9 9 7 4 4 2 4 7 7 7 7 8 8 7 8 8 7 7 7 8 8 9 10 10 9 8 7 6 5 4 4 4 4 3
7 11 14 16 13 12 13 13 14 13 12 11 6 5 7 5 4 6 7 7 7 7 8 7 6 6 6 6 6 7 6 6 6 7 8 8 7 6 5 5 4 4 4 5
6 8 12 15 16 15 13 13 13 13 13 12 9 3 7 6 4 5 6 5 6 6 7 7 6 6 6 6 6 6 6 6 6 6 6 6 6 6 6 5 5 4 4 4
8 8 10 13 15 16 17 14 14 13 12 11 8 3 4 5 5 5 6 5 4 5 5 6 5 6 5 5 5 5 6 6 5 5 5 5 6 6 5 6 5 4 4 4
7 7 8 12 13 18 13 10 11 10 9 7 4 2 3 5 6 5 4 5 4 4 3 3 5 6 5 5 6 4 5 6 6 6 5 4 5 5 4 4 4 4 4 3
9 7 8 11 14 15 13 11 11 10 8 6 4 3 2 3 5 4 4 5 4 4 3 2 2 4 5 5 5 6 5 4 5 5 5 5 5 5 5 4 4 4 4 4
11 8 9 11 14 14 10 9 7 6 7 4 2 2 2 2 3 2 4 4 4 4 3 2 2 3 4 4 4 5 5 5 5 5 5 5 5 5 5 5 4 4 4 4
13 12 13 14 14 10 6 5 6 10 4 2 2 1 0 1 2 3 4 4 4 4 4 4 4 3 3 3 3 3 3 3 3 3 3 3 3 3 4 4 3 3 4 4
12 12 13 13 14 9 4 3 2 2 4 4 4 2 2 4 4 4 5 4 3 4 4 4 4 4 3 4 4 3 2 2 3 3 3 3 3 3 3 3 3 3 3 3
10 8 6 6 5 1 4 4 4 4 4 4 3 3 3 4 4 3 4 4 3 2 3 3 3 4 3 3 3 3 2 3 3 3 2 2 2 2 3 4 4 3 3 3
8 6 6 4 3 2 0 2 2 2 2 2 2 2 2 2 3 3 3 3 3 2 2 3 3 3 3 3 3 3 3 3 3 3 2 2 2 2 2 2 3 3 3 3
7 5 6 6 4 2 2 1 1 1 1 0 0 1 1 2 2 2 3 2 2 2 2 2 2 3 3 3 3 3 3 3 4 3 3 3 3 3 2 2 1 2 1 2
8 6 5 4 3 3 3 2 2 1 1 0 0 1 1 3 4 3 3 3 2 2 2 2 2 3 3 3 3 3 3 3 4 3 3 3 3 3 3 3 2 3 1 2
Wind_Direction
229 236 237 236 228 236 262 273 197 195 228 208 147 154 163 170 173 169 168 167 166 164 160 157 160 155 151 149 147 151 150 142 150 147 147 153 146 144 134 133 123 130 123 112
231 232 236 242 245 240 251 261 286 244 223 217 169 180 174 170 178 174 170 167 166 163 159 159 163 159 155 151 152 154 158 161 172 156 143 151 135 150 139 115 120 131 130 166
236 234 233 234 232 238 254 242 240 234 237 227 194 180 202 185 184 174 173 169 167 167 163 162 167 166 161 157 163 168 165 166 174 164 166 153 134 162 128 134 137 127 104 91
240 237 237 240 239 237 249 250 251 254 243 232 201 183 201 193 195 185 176 169 172 170 165 166 170 170 165 162 163 159 157 160 164 170 182 181 171 164 147 140 142 138 125 129
239 235 234 239 242 241 253 262 265 269 262 258 229 206 189 189 200 188 179 177 172 166 167 166 168 166 164 163 162 157 152 156 160 173 183 192 183 166 150 141 141 147 154 157
250 243 239 244 246 243 252 257 261 266 262 256 247 233 183 191 190 183 174 170 163 161 164 161 160 158 163 163 161 159 155 159 165 176 184 189 196 157 150 156 160 173 169 166
240 241 234 235 241 233 234 240 247 253 249 246 252 244 168 176 171 166 162 163 165 160 155 158 160 161 164 166 164 159 159 164 171 180 184 183 187 176 179 185 183 192 166 167
231 229 225 221 233 242 240 242 243 241 251 247 252 260 160 147 149 147 149 155 162 159 153 157 163 163 164 167 163 159 161 167 173 179 181 180 184 192 191 193 206 197 166 153
242 237 216 216 220 233 242 244 253 254 258 256 221 217 157 125 127 138 147 150 156 154 156 160 167 170 168 167 162 161 160 165 173 175 171 175 185 190 179 168 191 192 163 150
251 255 238 209 208 225 242 250 255 256 263 271 245 227 191 141 148 165 161 157 153 154 157 160 168 171 166 165 160 159 159 164 170 172 177 177 178 182 182 177 164 148 120 99
244 250 245 222 213 222 224 242 250 259 258 261 252 245 214 163 162 162 145 151 152 159 156 156 164 168 162 162 163 161 159 163 170 172 172 169 166 174 172 172 171 159 143 143
235 247 250 241 226 227 234 236 241 244 252 268 265 216 227 166 150 139 135 149 147 146 148 152 158 159 162 166 167 165 165 169 173 171 167 172 167 164 174 177 173 163 161 164
254 246 241 235 224 216 226 235 244 245 239 245 257 181 158 125 132 133 133 146 138 136 135 141 147 153 158 163 164 167 171 173 174 170 169 171 174 174 174 168 169 165 167 172
262 249 249 245 238 220 223 231 240 247 250 246 239 167 162 112 110 123 131 132 132 134 132 139 142 144 148 150 151 159 171 174 173 169 170 170 176 175 172 171 170 168 171 175
256 247 252 260 260 249 234 233 234 241 252 259 250 188 157 144 151 138 132 132 133 135 139 138 140 143 149 151 154 161 167 168 166 163 167 170 172 171 170 172 173 176 182 185
248 266 262 258 258 254 245 236 236 238 245 251 253 196 135 131 116 115 121 130 131 135 145 144 142 139 152 159 163 163 167 163 154 161 170 167 167 171 175 173 174 179 182 180
235 244 258 255 254 258 245 237 235 238 241 248 252 195 136 130 127 132 133 132 127 136 143 145 147 148 158 157 160 164 161 153 156 167 169 166 168 174 178 181 177 180 182 180
248 258 250 252 252 249 248 244 242 236 241 242 225 193 170 144 133 111 114 121 117 111 111 138 158 158 163 163 163 150 153 151 161 165 169 169 173 175 174 175 177 181 182 181
228 235 248 247 244 246 248 237 235 235 236 237 221 193 165 144 136 114 101 116 116 118 120 129 163 164 157 158 153 145 148 161 164 165 167 176 177 176 179 185 185 183 179 182
215 211 236 245 248 244 244 239 229 232 230 224 203 186 201 197 220 124 96 105 117 122 120 122 124 123 131 138 146 152 158 166 172 173 174 176 176 179 180 182 188 182 181 188
207 212 226 240 247 251 267 257 230 225 210 142 142 153 216 71 40 85 96 91 93 104 109 110 104 101 110 121 123 131 147 162 162 153 157 159 160 167 172 171 180 185 192 190
219 216 220 234 240 240 290 246 245 61 78 91 86 92 89 89 95 96 94 92 95 97 99 103 108 103 102 112 122 127 129 127 123 131 140 153 157 182 168 152 164 178 189 190
236 235 225 231 237 289 2 49 69 79 76 75 85 82 91 112 120 117 110 110 107 101 105 106 115 113 111 116 126 132 119 113 117 124 135 145 161 181 154 166 176 186 191 202
228 241 241 241 214 202 204 57 59 83 85 73 83 87 92 123 123 124 123 118 119 109 105 109 119 127 123 126 124 119 119 126 132 142 151 165 184 179 160 175 186 198 193 203
279 240 227 224 229 230 166 193 49 48 71 359 332 148 148 139 134 140 129 118 126 121 111 118 123 129 128 125 126 127 132 144 153 162 173 191 201 184 171 181 179 200 176 196
280 274 244 236 237 246 237 248 261 249 226 101 151 154 186 149 160 165 143 137 139 144 126 123 125 130 127 130 133 134 141 153 164 176 192 200 198 184 185 180 154 47 74 133